Location: Unspecified
(50.1700°N, 6.8600°E)
Time: 04:45:51
(UTC+00:00)

Cosmos 405 Rocket - Pass Details

Date: 24 January 2019
Orbit: 490 x 556 km, 81.3° (Epoch: 20 February)

Event Time Altitude Azimuth Distance (km) Brightness Sun altitude
Rises 06:12:47 0° 218° (SW) 2,630 6.1 -10.3°
Reaches altitude 10° 06:15:09 10° 231° (SW) 1,736 5.1 -10.0°
Maximum altitude 06:18:26 27° 291° (WNW) 999 3.6 -9.5°
Drops below altitude 10° 06:21:42 10° 351° (N) 1,719 5.1 -9.0°
Sets 06:24:03 0° 4° (N) 2,600 6.1 -8.6°
